Flag for U.S.A. Weather past 2 weeks in Lubbock, Texas, U.S.A.

Now
55 °F

Passing clouds.


Feels Like: 52 °F
Forecast: 52 / 73 °F
Wind: 12 mph from South

Location: Lubbock International Airport


UV Index: 0 (Low)

Visibility: 10 mi


Pressure: 29.99 "Hg

Humidity: 69%

Dew point: 45 °F

Location of LubbockLocation

Historic Weather in Lubbock

°F

Lubbock temperature yesterday

Maximum temperature yesterday: 70 °F (at 3:53 PM)
Minimum temperature yesterday: 40 °F (at 2:00 AM)
Average temperature yesterday: 55 °F

Past Weeks' High & Low Weather Summary

 TemperatureHumidityPressure
High90 °F (Apr 10, 1:53 PM)93% (Apr 7, 3:53 AM)30.34 "Hg (Apr 7, 3:53 AM)
Low25 °F (Apr 15, 6:53 AM)3% (Apr 10, 2:53 PM)29.44 "Hg (Apr 13, 4:53 PM)
Average58 °F37%29.91 "Hg
* Reported Apr 4 3:53 AM — Apr 19 3:53 AM, Lubbock, Weather by CustomWeather, © 2014

Note: Actual official high and low records may vary slightly from our data, if they occured in-between our weather recording intervals... More about our weather records

Advertising

Historic Weather Conditions — Data for Previous 24 hours

 ConditionsComfort  
Time TempWeatherWind HumidityBarometerVisibility
3:53 AM
Apr 19
53 °FPartly cloudy.12 mph66%29.98 "Hg10 mi
2:53 AM54 °FPassing clouds.12 mph64%30.01 "Hg10 mi
1:53 AM54 °FPassing clouds.9 mph64%30.01 "Hg10 mi
12:53 AM56 °FPassing clouds.13 mph62%30.02 "Hg10 mi
11:53 PM
Apr 18
57 °FPassing clouds.12 mph55%30.02 "Hg10 mi
10:53 PM60 °FPassing clouds.10 mph52%30.04 "Hg10 mi
9:53 PM61 °FPassing clouds.9 mph54%30.05 "Hg10 mi
8:53 PM64 °FMore clouds than sun.13 mph50%30.03 "Hg10 mi
7:53 PM67 °FMostly cloudy.16 mph47%30.01 "Hg10 mi
6:53 PM69 °FMostly cloudy.17 mph44%30.00 "Hg10 mi
5:53 PM70 °FMostly cloudy.16 mph39%30.01 "Hg10 mi
4:53 PM70 °FOvercast.16 mph42%30.03 "Hg10 mi
3:53 PM70 °FOvercast.16 mph44%30.06 "Hg10 mi
2:53 PM66 °FPartly sunny.12 mph52%30.10 "Hg10 mi
1:53 PM66 °FBroken clouds.15 mph50%30.14 "Hg10 mi
12:53 PM62 °FPartly sunny.12 mph48%30.16 "Hg10 mi
11:53 AM56 °FMostly cloudy.8 mph58%30.20 "Hg8 mi
10:53 AM52 °FPartly sunny.6 mph66%30.21 "Hg6 mi
9:53 AM47 °FFog.7 mph80%30.21 "Hg5 mi
8:53 AM45 °FLow clouds.5 mph82%30.21 "Hg3 mi
7:53 AM44 °FFog.No wind89%30.19 "Hg4 mi
6:53 AM44 °FFog.No wind89%30.15 "Hg6 mi
5:53 AM44 °FLow clouds.3 mph89%30.16 "Hg7 mi
Weather by CustomWeather, © 2014

See weather overview